[[{"header":{"parameterUnit":"m.s-1","parameterCategory":1,"la1":30.2991,"la2":30.254,"lo1":-89.0895,"lo2":-89.0444,"dy":0.0017,"dx":0.0017,"nx":28,"ny":28,"refTime":"2024-05-23T21:00:00:Z","depth":0,"parameterNumber":2,"parameterNumberName":"U-component_of_WINDS"},"data":[0,0,0,0,0,0,0,0,0,0,0,0,0,0,0,0,0,0,0,0,0,0,0,0,0,0,0,0,0,0,0,0,0,0,0,0,0,0,0,0,0,0,0,0,0,0,0,0,0,0,0,0,0,0,0,0,0,0,-0.2953,-0.2953,0,-0.2948,-0.2948,-0.2948,-0.2957,-0.2957,-0.2957,-0.2957,-0.2952,-0.2951,-0.2951,0,0,0,0,0,0,0,0,0,0,0,0,0,-0.2971,-0.297,-0.2953,-0.2953,-0.2953,-0.2948,-0.2948,-0.2948,-0.2956,-0.2957,-0.2957,-0.2957,-0.2952,-0.2951,-0.2951,0,0,0,0,0,0,0,0,0,0,0,0,0,-0.2964,-0.297,-0.2953,-0.2957,-0.2957,-0.2948,-0.2948,-0.2948,-0.2956,-0.2957,-0.2957,-0.2958,-0.2952,-0.2951,-0.2951,-0.2938,0,0,-0.2949,-0.2948,0,0,0,0,0,0,0,0,-0.2965,-0.2964,-0.2956,-0.2957,-0.2957,-0.2954,-0.2952,-0.2945,-0.2956,-0.2957,-0.2957,-0.2958,-0.2952,-0.2951,-0.2949,-0.2938,-0.2938,-0.2949,-0.2948,-0.2948,-0.2948,0,0,0,0,0,0,0,-0.2965,-0.2964,-0.2951,-0.2956,-0.2957,-0.2959,-0.2958,-0.2951,-0.2952,-0.2957,-0.2957,-0.2957,-0.2952,-0.295,-0.2949,-0.2938,-0.2949,-0.2948,-0.2948,-0.2947,-0.2917,-0.2917,0,0,0,0,0,0,-0.2965,-0.2964,-0.2952,-0.2951,-0.2962,-0.2958,-0.2958,-0.2954,-0.2952,-0.2952,-0.2956,-0.2957,-0.2951,-0.295,-0.2949,-0.2935,-0.2948,-0.2947,-0.2947,-0.2917,-0.2917,-0.2917,0,0,0,0,0,0,-0.2965,-0.2964,-0.2952,-0.2958,-0.2957,-0.2957,-0.2953,-0.2954,-0.2952,-0.2952,-0.2952,-0.2954,-0.2951,-0.295,-0.2941,-0.2935,-0.2947,-0.2946,-0.2918,-0.2917,-0.2917,-0.2906,0,0,0,0,0,0,-0.2966,-0.2964,-0.2959,-0.2958,-0.2956,-0.2944,-0.2953,-0.2953,-0.2951,-0.2952,-0.2949,-0.2949,-0.2951,-0.2942,-0.2941,-0.2934,-0.2946,-0.2919,-0.2918,-0.2917,-0.2907,-0.2906,-0.2904,0,0,0,0,0,-0.2966,-0.2956,-0.2959,-0.2957,-0.295,-0.2943,-0.2942,-0.2945,-0.295,-0.2945,-0.2946,-0.295,-0.2936,-0.2941,-0.2939,-0.2933,-0.2919,-0.2918,-0.2917,-0.2908,-0.2906,-0.2904,0,0,0,0,0,0,-0.2956,-0.2956,-0.2959,-0.2947,-0.2945,-0.2945,-0.2939,-0.2942,-0.2939,-0.294,-0.2943,-0.2942,-0.2933,-0.2932,-0.2938,-0.2921,-0.2928,-0.2927,-0.2922,-0.292,-0.2918,-0.2919,-0.2945,0,0,0,0,0,-0.2952,-0.2947,-0.2947,-0.2937,-0.2936,-0.2938,-0.2935,-0.2937,-0.2935,-0.2934,-0.2933,-0.2931,-0.2927,-0.2923,-0.2919,-0.2908,-0.2908,-0.2902,-0.2901,-0.2899,-0.2898,-0.2893,-0.2891,-0.2913,-0.2913,-0.2913,0,0,-0.2944,-0.2944,-0.294,-0.2935,-0.2934,-0.2928,-0.2937,-0.293,-0.2926,-0.2933,-0.2925,-0.2924,-0.2922,-0.2912,-0.2908,-0.2911,-0.2892,-0.2898,-0.2897,-0.2896,-0.2892,-0.289,-0.2888,-0.2913,-0.2913,-0.2913,0,0,-0.2928,-0.2926,-0.2919,-0.2917,-0.2916,-0.2917,-0.2915,-0.2914,-0.2914,-0.2907,-0.2912,-0.2907,-0.2899,-0.2897,-0.2896,-0.288,-0.2884,-0.2879,-0.287,-0.2865,-0.2863,-0.2861,-0.2856,-0.2854,-0.2877,-0.2877,-0.2877,0,-0.2918,-0.291,-0.2914,-0.2908,-0.2906,-0.2912,-0.2904,-0.2903,-0.29,-0.2898,-0.2902,-0.2893,-0.2892,-0.2882,-0.2878,-0.2877,-0.2875,-0.2879,-0.2863,-0.2861,-0.286,-0.2855,-0.2853,-0.2877,-0.2877,-0.2877,-0.2877,0,-0.2899,-0.2894,-0.2887,-0.2885,-0.2882,-0.2875,-0.2878,-0.2875,-0.2878,-0.2879,-0.2871,-0.2871,-0.2867,-0.2865,-0.2867,-0.2856,-0.2858,-0.2862,-0.2869,-0.2857,-0.2853,-0.2851,-0.2876,-0.2876,-0.2876,-0.2877,0,0,-0.2874,-0.2875,-0.2873,-0.2872,-0.2871,-0.2867,-0.2861,-0.2858,-0.2855,-0.2853,-0.2848,-0.2842,-0.2846,-0.2844,-0.2847,-0.2842,-0.2831,-0.2848,-0.2848,-0.2845,-0.2819,-0.2816,-0.2814,-0.2834,-0.2834,-0.2833,-0.282,0,-0.2858,-0.2847,-0.2851,-0.284,-0.2836,-0.2843,-0.2837,-0.2836,-0.2838,-0.2834,-0.2836,-0.2831,-0.2837,-0.2836,-0.2832,-0.2833,-0.2826,-0.2834,-0.283,-0.2829,-0.283,-0.2811,-0.2807,-0.2794,-0.2818,-0.2818,-0.2817,0,-0.2837,-0.2835,-0.2824,-0.2825,-0.2824,-0.2819,-0.2817,-0.2813,-0.2813,-0.2814,-0.2812,-0.2816,-0.2811,-0.2818,-0.2811,-0.2816,-0.2815,-0.2815,-0.2815,-0.2814,-0.2822,-0.281,-0.279,-0.2788,-0.2815,-0.2815,-0.2815,0,-0.2821,-0.2815,-0.2808,-0.2807,-0.2808,-0.2805,-0.2805,-0.2805,-0.2804,-0.2802,-0.2801,-0.2798,-0.2797,-0.2795,-0.2798,-0.2803,-0.2791,-0.2798,-0.2792,-0.2792,-0.2788,-0.2789,-0.2768,-0.2788,-0.2788,-0.2788,-0.2788,0,-0.2802,-0.2795,-0.2801,-0.2797,-0.2789,-0.2794,-0.2787,-0.2788,-0.2788,-0.2784,-0.279,-0.2786,-0.2791,-0.2788,-0.2791,-0.2785,-0.2784,-0.2785,-0.2786,-0.2784,-0.2784,-0.2783,-0.2784,-0.2787,-0.2787,-0.2787,-0.2787,0,-0.2782,-0.2786,-0.2779,-0.2781,-0.2781,-0.2776,-0.2778,-0.2774,-0.2776,-0.2771,-0.2771,-0.2774,-0.2771,-0.2774,-0.2771,-0.2773,-0.2765,-0.2767,-0.2765,-0.2765,-0.2759,-0.276,-0.2737,-0.2734,-0.2755,-0.2755,-0.2755,0,-0.277,-0.2765,-0.2767,-0.2765,-0.2765,-0.2762,-0.2761,-0.2765,-0.2764,-0.2764,-0.276,-0.2757,-0.2756,-0.275,-0.2752,-0.275,-0.2753,-0.2745,-0.2752,-0.2751,-0.2753,-0.2753,-0.2753,-0.2743,-0.2743,-0.2743,-0.2742,0,-0.2749,-0.2751,-0.2749,-0.2747,-0.2745,-0.2744,-0.2744,-0.2742,-0.2747,-0.2745,-0.2742,-0.2741,-0.2738,-0.2736,-0.2735,-0.2735,-0.274,-0.274,-0.2739,-0.2737,-0.2736,-0.2737,-0.2761,-0.2741,-0.2741,-0.2741,-0.2741,-0.2741,-0.2732,-0.2729,-0.273,-0.2727,-0.2728,-0.2727,-0.2724,-0.2726,-0.2724,-0.2723,-0.2726,-0.2722,-0.2723,-0.2722,-0.2722,-0.272,-0.2723,-0.2721,-0.272,-0.272,-0.2719,-0.2737,-0.272,-0.272,-0.272,-0.272,-0.272,0,-0.2711,-0.2713,-0.271,-0.271,-0.2708,-0.2713,-0.2713,-0.2712,-0.2709,-0.2709,-0.2707,-0.2705,-0.2703,-0.2705,-0.2704,-0.2701,-0.2704,-0.2701,-0.2701,-0.2701,-0.2716,-0.2717,-0.2699,-0.2699,-0.2699,-0.2699,-0.2699,-0.2699,-0.27,-0.2694,-0.2697,-0.2692,-0.2693,-0.269,-0.269,-0.269,-0.269,-0.2687,-0.2685,-0.2687,-0.2689,-0.2688,-0.2687,-0.2687,-0.2687,-0.2683,-0.2685,-0.2698,-0.27,-0.2702,-0.2704,-0.2683,-0.2683,-0.2671,-0.2671,-0.267]},{"header":{"parameterUnit":"m.s-1","parameterCategory":1,"la1":30.2991,"la2":30.254,"lo1":-89.0895,"lo2":-89.0444,"dy":0.0017,"dx":0.0017,"nx":28,"ny":28,"refTime":"2024-05-23T21:00:00:Z","depth":0,"parameterNumber":3,"parameterNumberName":"V-component_of_WINDS"},"data":[0,0,0,0,0,0,0,0,0,0,0,0,0,0,0,0,0,0,0,0,0,0,0,0,0,0,0,0,0,0,0,0,0,0,0,0,0,0,0,0,0,0,0,0,0,0,0,0,0,0,0,0,0,0,0,0,0,0,5.0885,5.0885,0,5.0857,5.0857,5.0856,5.0824,5.0823,5.0823,5.0822,5.0791,5.0791,5.0791,0,0,0,0,0,0,0,0,0,0,0,0,0,5.0909,5.0909,5.0885,5.0885,5.0884,5.0857,5.0857,5.0856,5.0824,5.0823,5.0823,5.0822,5.0792,5.0791,5.0791,0,0,0,0,0,0,0,0,0,0,0,0,0,5.0892,5.0909,5.0885,5.0865,5.0863,5.0857,5.0856,5.0856,5.0824,5.0823,5.0822,5.0822,5.0792,5.0791,5.0791,5.0802,0,0,5.0789,5.0789,0,0,0,0,0,0,0,0,5.0893,5.0891,5.0868,5.0866,5.0864,5.0843,5.0854,5.0838,5.0824,5.0839,5.0822,5.0821,5.0809,5.0807,5.0803,5.08,5.0799,5.0789,5.0789,5.0788,5.0788,0,0,0,0,0,0,0,5.0894,5.0892,5.0874,5.0868,5.0865,5.0857,5.0854,5.0851,5.0828,5.0837,5.0835,5.0832,5.0808,5.0804,5.0802,5.0798,5.0789,5.0788,5.0788,5.0788,5.0804,5.0805,0,0,0,0,0,0,5.0899,5.0893,5.0875,5.0873,5.0877,5.0857,5.0853,5.085,5.0828,5.0824,5.0833,5.0831,5.0805,5.0803,5.0801,5.0813,5.0788,5.0788,5.0787,5.0803,5.0804,5.0805,0,0,0,0,0,0,5.0899,5.0897,5.0876,5.0882,5.0879,5.0857,5.0854,5.085,5.0846,5.0825,5.082,5.0833,5.0805,5.0802,5.0802,5.0812,5.0787,5.0787,5.0802,5.0804,5.0805,5.0837,0,0,0,0,0,0,5.09,5.0898,5.0902,5.0883,5.0879,5.0878,5.0855,5.085,5.0846,5.0843,5.0824,5.082,5.0804,5.0803,5.0802,5.081,5.0787,5.0801,5.0803,5.0804,5.0835,5.0839,5.0843,0,0,0,0,0,5.0901,5.0911,5.0902,5.09,5.0884,5.0878,5.0876,5.0858,5.0847,5.0851,5.0837,5.0821,5.0811,5.0803,5.0801,5.081,5.0801,5.0803,5.0804,5.0833,5.0838,5.0843,0,0,0,0,0,0,5.0931,5.0908,5.0898,5.0902,5.0893,5.0873,5.0877,5.0863,5.0856,5.0853,5.0831,5.0826,5.083,5.082,5.0812,5.082,5.0804,5.0805,5.0826,5.0831,5.0835,5.0837,5.0786,0,0,0,0,0,5.0938,5.0936,5.0916,5.0922,5.0918,5.0899,5.0896,5.0883,5.0871,5.0867,5.0853,5.0842,5.0837,5.0833,5.0827,5.0834,5.0829,5.0839,5.0843,5.0846,5.0847,5.0851,5.0855,5.0811,5.0811,5.0811,0,0,5.0953,5.094,5.094,5.0928,5.0919,5.0917,5.0895,5.0894,5.0892,5.0866,5.0866,5.0856,5.0842,5.0846,5.0847,5.0838,5.0859,5.0848,5.0851,5.085,5.0853,5.0858,5.0861,5.0812,5.0812,5.0812,0,0,5.0979,5.0969,5.0973,5.0965,5.0952,5.0939,5.094,5.0923,5.0915,5.0915,5.0896,5.0893,5.0884,5.0876,5.087,5.0895,5.0879,5.0893,5.0913,5.0917,5.092,5.0923,5.0933,5.0936,5.0895,5.0895,5.0895,0,5.0998,5.0995,5.0977,5.0977,5.0973,5.095,5.0954,5.0947,5.0932,5.093,5.092,5.0909,5.0898,5.09,5.0907,5.0903,5.0903,5.0895,5.0922,5.0924,5.0927,5.0935,5.0939,5.0896,5.0896,5.0896,5.0896,0,5.102,5.1019,5.1024,5.1011,5.1007,5.1009,5.0991,5.099,5.0977,5.0966,5.0966,5.0953,5.0944,5.0943,5.0931,5.0944,5.0939,5.0926,5.0908,5.0933,5.0941,5.0944,5.0899,5.0898,5.0898,5.0897,0,0,5.1063,5.1042,5.1044,5.1038,5.1023,5.1021,5.1023,5.1015,5.1014,5.1005,5.1006,5.1,5.0988,5.0982,5.0968,5.0972,5.0993,5.0958,5.0958,5.0965,5.1007,5.1017,5.1021,5.0983,5.0984,5.0984,5.1008,0,5.1086,5.1088,5.1072,5.1078,5.1077,5.1056,5.1057,5.1048,5.1038,5.1035,5.1023,5.1019,5.1004,5.1,5.1003,5.099,5.1001,5.0988,5.0983,5.0984,5.0987,5.1025,5.1035,5.1059,5.1011,5.1012,5.1012,0,5.1113,5.1107,5.1113,5.1098,5.1097,5.1099,5.1091,5.1088,5.1078,5.107,5.1064,5.1049,5.105,5.1034,5.1035,5.1026,5.1024,5.1017,5.1018,5.1016,5.0999,5.1025,5.1066,5.1069,5.1016,5.1016,5.1016,0,5.1144,5.1137,5.114,5.1136,5.1119,5.1121,5.1113,5.1102,5.1099,5.1092,5.109,5.1083,5.1079,5.1074,5.1058,5.1048,5.1061,5.1044,5.1055,5.1055,5.1058,5.1058,5.1099,5.1056,5.1056,5.1056,5.1056,0,5.1171,5.1175,5.1154,5.1155,5.116,5.1142,5.1148,5.1138,5.1129,5.1129,5.111,5.111,5.1089,5.1087,5.1074,5.1077,5.1075,5.1069,5.1066,5.1071,5.1072,5.1069,5.1067,5.1057,5.1057,5.1057,5.1057,0,5.1206,5.1191,5.1193,5.1178,5.1174,5.1178,5.1165,5.1166,5.1155,5.1155,5.1154,5.1137,5.1133,5.1117,5.1109,5.1101,5.1108,5.1101,5.1112,5.111,5.1122,5.1121,5.1162,5.1167,5.1122,5.1122,5.1122,0,5.1224,5.1227,5.1212,5.1211,5.1206,5.1204,5.1201,5.1184,5.1181,5.1171,5.1173,5.1169,5.1164,5.116,5.1146,5.1141,5.1133,5.1148,5.1132,5.1138,5.1134,5.1134,5.1135,5.1152,5.1152,5.1153,5.1153,0,5.1258,5.1251,5.1248,5.1243,5.124,5.1235,5.1228,5.1228,5.1209,5.1208,5.1205,5.1201,5.1195,5.119,5.1183,5.1175,5.1161,5.1159,5.1161,5.1166,5.1172,5.117,5.1122,5.1157,5.1157,5.1157,5.1156,5.1156,5.1285,5.1288,5.1278,5.1275,5.1269,5.1264,5.1265,5.1254,5.1252,5.1245,5.1235,5.1234,5.1224,5.1213,5.1207,5.1205,5.1197,5.12,5.1201,5.1202,5.1205,5.1173,5.1204,5.1204,5.1204,5.1203,5.1203,0,5.1319,5.1312,5.131,5.1302,5.13,5.1288,5.1281,5.128,5.1279,5.1272,5.1268,5.1265,5.1261,5.1248,5.1243,5.1245,5.1238,5.1244,5.1244,5.1243,5.1213,5.1211,5.125,5.125,5.125,5.125,5.125,5.125,5.1336,5.1339,5.1332,5.1332,5.1325,5.1324,5.1321,5.1317,5.1311,5.1309,5.1306,5.1298,5.1288,5.1283,5.1279,5.1275,5.1274,5.1283,5.1277,5.1249,5.1244,5.124,5.1239,5.1282,5.1282,5.1307,5.1307,5.1307]}]]